Location: Strawberry
(45.6646°N, 111.9596°W)
Time: 18:15:25
(UTC+00:00)

SR - Pass Details

Date: 05 October 2022
Orbit: 577 x 874 km, 66.7° (Epoch: 05 December)

Event Time Altitude Azimuth Distance (km) Brightness Sun altitude
Exits shadow 10:10:05 - 332° (NNW) 3,312 ? -34.4°
Reaches altitude 10° 10:13:30 10° 354° (N) 2,411 ? -33.9°
Maximum altitude 10:16:35 15° 28° (NNE) 2,035 ? -33.5°
Drops below altitude 10° 10:19:33 10° 62° (ENE) 2,301 ? -33.0°
Sets 10:22:56 0° 86° (E) 3,153 ? -32.5°
